Bobo Dioulasso Airport

Jump to: basic info | weather | frequencies | runways | comments

Related pages: nearby airports | nearby navaids | notams | map

Basic information (top)

Codes: BOY DFOO
Location: lon 11.160100, lat -4.330970, elev 1,511 ft / 461 m msl
Status: medium_airport
Scheduled airline service: yes
Links: Wikipedia Mobile

Weather (top)

Current conditions (rec'd 2014/11/26 23:00Z):

DFOO 262300Z 00000KT CAVOK 24/13 Q1013

Airport forecast (rec'd 2014/11/26 00:12Z):

TAF DFOO 262300Z 2700/2724 18006KT CAVOK

Frequencies (top)

Verify before use: may be inaccurate or out of date.

A/G: 667.3 MHz (AG VOICE RDO)
TWR: 119.7 MHz (TWR)

Runways (top)

06/24: 10,826 x 148 ft (3,300 x 45 m) — paved — lighted

Latest comments (top)

No comments yet for Bobo Dioulasso Airport

More... (top)

See also NOTAMs and nearby airports and navaids, or visit the Bobo Dioulasso Airport page at the main OurAirports website..